TimeCDT,TemperatureF,Dew PointF,Humidity,Sea Level PressureIn,VisibilityMPH,Wind Direction,Wind SpeedMPH,Gust SpeedMPH,PrecipitationIn,Events,Conditions,WindDirDegrees,DateUTC
12:53 AM,60.1,42.1,51,30.01,10.0,Calm,Calm,-,N/A,,Scattered Clouds,0,2012-09-30 05:53:00
1:53 AM,59.0,42.1,53,30.02,10.0,NNW,3.5,-,N/A,,Scattered Clouds,340,2012-09-30 06:53:00
2:53 AM,57.0,43.0,59,30.01,10.0,NW,3.5,-,N/A,,Mostly Cloudy,320,2012-09-30 07:53:00
3:53 AM,55.0,43.0,64,29.99,10.0,NNW,5.8,-,N/A,,Scattered Clouds,330,2012-09-30 08:53:00
4:53 AM,55.0,42.1,62,29.99,10.0,North,3.5,-,N/A,,Scattered Clouds,360,2012-09-30 09:53:00
5:53 AM,53.1,43.0,69,29.98,10.0,Calm,Calm,-,N/A,,Partly Cloudy,0,2012-09-30 10:53:00
6:53 AM,52.0,43.0,71,29.98,10.0,WNW,4.6,-,N/A,,Scattered Clouds,300,2012-09-30 11:53:00
7:53 AM,53.1,44.1,71,29.99,10.0,West,4.6,-,N/A,,Mostly Cloudy,280,2012-09-30 12:53:00
8:53 AM,55.9,45.0,67,29.99,10.0,WNW,3.5,-,N/A,,Mostly Cloudy,300,2012-09-30 13:53:00
9:53 AM,64.9,46.0,50,29.99,10.0,NNW,4.6,-,N/A,,Mostly Cloudy,330,2012-09-30 14:53:00
10:53 AM,73.0,44.1,35,29.98,10.0,NE,8.1,-,N/A,,Mostly Cloudy,40,2012-09-30 15:53:00
11:53 AM,75.0,43.0,32,29.96,10.0,NE,6.9,-,N/A,,Mostly Cloudy,40,2012-09-30 16:53:00
12:53 PM,75.9,44.1,32,29.95,10.0,North,4.6,-,N/A,,Mostly Cloudy,10,2012-09-30 17:53:00
1:53 PM,77.0,45.0,32,29.92,10.0,NW,4.6,-,N/A,,Overcast,310,2012-09-30 18:53:00
2:53 PM,77.0,44.1,31,29.91,10.0,WNW,3.5,-,N/A,,Mostly Cloudy,300,2012-09-30 19:53:00
3:53 PM,77.0,45.0,32,29.89,10.0,NW,5.8,-,N/A,,Overcast,320,2012-09-30 20:53:00
4:53 PM,75.9,46.0,35,29.88,10.0,WNW,6.9,-,N/A,,Overcast,290,2012-09-30 21:53:00
5:53 PM,73.0,48.9,42,29.88,10.0,WNW,4.6,-,N/A,,Overcast,290,2012-09-30 22:53:00
6:53 PM,69.1,48.0,47,29.88,10.0,West,5.8,-,N/A,,Mostly Cloudy,270,2012-09-30 23:53:00
7:53 PM,66.9,46.0,47,29.88,10.0,WNW,5.8,-,N/A,,Mostly Cloudy,290,2012-10-01 00:53:00
8:53 PM,66.0,46.0,48,29.88,10.0,WNW,5.8,-,N/A,,Mostly Cloudy,300,2012-10-01 01:53:00
9:53 PM,64.9,45.0,48,29.88,10.0,NW,8.1,-,N/A,,Mostly Cloudy,310,2012-10-01 02:53:00
10:53 PM,63.0,45.0,52,29.88,10.0,NW,5.8,-,N/A,,Mostly Cloudy,320,2012-10-01 03:53:00
11:53 PM,63.0,45.0,52,29.87,10.0,NNW,5.8,-,N/A,,Overcast,330,2012-10-01 04:53:00